Domenica 25 Agosto 2019

 
Calliano - Provincia di Trento

189 mslm

45° 55' 59'' N 11° 05' 53'' E

Pagine realizzate e gestite da Andrea Pernecher

 

Tutti gli orari sono riferiti all'ora solare (GMT+1h)

>stazione meteo :: i dati del giorno  

 Dati relativi a DOMENICA 25 AGOSTO 2019 ORE 16.54
 

 TEMPERATURA

27,6 °C

 

 ESCURS. TERMICA 11,3 °C

 

 

 TEMPERATURA MIN

18,2 °C

alle 06:09

 

 TEMPERATURA MAX 29,5 °C

alle 13:32

 

 TEMP.MEDIA INTEG.

22.0 °C

       
 

 PRESSIONE

1.010 mbar

 

 UMIDITA' 35 %

 

 PIOGGIA

0,0 mm

 

 INTENS. PIOGGIA 0,0 mm/h

 

 VENTO MAX

6,9 m/s

N

 

 INDICE DI CALORE

27,0 °C

 
Immagini WebCam
ORE 8.00 ORE 12.00 ORE 16.00

> visualizza webcam 24 ore

 

 Dettaglio rilevazioni di Domenica 25 Agosto 2019 (ogni 15 minuti)
Ora Temperatura °C Umidità R. % Pressione mbar Vento m/s Indice di calore °C Pioggia totale caduta mm Intensità della pioggia mm/h
  TEMPERATURA UMIDITA' PRESSIONE VENTO IND. CALORE PIOGGIA INTENS. PIOGGIA
16:30 27,5 34 1.010 3,4 W 26,9 0,0 0,0
16:15 27,1 36 1.010 2,6 WSW 26,7 0,0 0,0
16:00 27,5 36 1.010 3,4 SSW 27,0 0,0 0,0
15:45 28,4 36 1.009 2,6 SW 27,7 0,0 0,0
15:30 28,3 40 1.010 1,2 NW 27,9 0,0 0,0
15:15 27,8 53 1.010 1,2 NW 28,5 0,0 0,0
15:00 26,4 53 1.010 1,2 NW 27,0 0,0 0,0
14:45 25,8 49 1.010 1,2 NW 26,2 0,0 0,0
14:30 26,4 43 1.010 2,8 ESE 26,5 0,0 0,0
14:15 27,4 40 1.010 0,0 NE 27,2 0,0 0,0
14:00 28,2 36 1.010 1,8 N 27,6 0,0 0,0
13:45 28,9 33 1.010 1,2 NNE 28,0 0,0 0,0
13:30 29,4 34 1.010 1,6 SSE 28,5 0,0 0,0
13:15 29,0 37 1.010 1,8 NNW 28,4 0,0 0,0
13:00 28,6 39 1.010 1,8 NNW 28,1 0,0 0,0
12:45 27,6 40 1.011 1,8 NNW 27,3 0,0 0,0
12:30 26,7 40 1.011 1,8 NNW 26,6 0,0 0,0
12:15 26,5 40 1.011 1,8 NNW 26,5 0,0 0,0
12:00 26,3 40 1.011 1,6 ENE 26,3 0,0 0,0
11:45 25,8 41 1.011 2,2 NNE 25,8 0,0 0,0
11:30 25,5 42 1.011 2,2 NNE 25,6 0,0 0,0
11:15 25,3 43 1.012 2,2 NNE 25,4 0,0 0,0
11:00 24,7 44 1.012 2,2 NNE 24,8 0,0 0,0
10:45 24,0 45 1.012 2,2 NNE 24,2 0,0 0,0
10:30 23,5 47 1.012 1,4 NNE 23,8 0,0 0,0
10:15 23,3 46 1.012 2,4 ENE 23,5 0,0 0,0
10:00 23,0 47 1.012 2,6 NE 23,3 0,0 0,0
09:45 22,8 49 1.013 2,8 NE 23,2 0,0 0,0
09:30 22,3 52 1.013 3,6 NE 22,9 0,0 0,0
09:15 22,0 52 1.013 2,8 NE 22,6 0,0 0,0
09:00 21,7 54 1.013 2,6 ENE 22,4 0,0 0,0
08:45 21,3 56 1.013 3,7 ENE 22,1 0,0 0,0
08:30 21,1 57 1.013 1,8 ENE 21,9 0,0 0,0
08:15 20,7 57 1.013 4,5 NE 21,5 0,0 0,0
08:00 20,4 58 1.013 5,7 NNE 21,3 0,0 0,0
07:45 20,0 61 1.013 1,6 NNE 21,1 0,0 0,0
07:30 19,8 63 1.012 3,6 NE 21,0 0,0 0,0
07:15 19,5 65 1.012 2,4 NNE 20,8 0,0 0,0
07:00 19,1 70 1.012 2,4 ENE 20,7 0,0 0,0
06:45 18,5 73 1.012 0,0 NE 20,3 0,0 0,0
06:30 18,3 73 1.012 1,6 NNE 20,1 0,0 0,0
06:15 18,2 72 1.012 1,6 N 20,0 0,0 0,0
06:00 18,4 72 1.012 1,0 NNE 20,2 0,0 0,0
05:45 18,5 72 1.012 1,6 NNE 20,3 0,0 0,0
05:30 18,5 73 1.012 1,6 NE 20,3 0,0 0,0
05:15 18,4 73 1.012 1,4 NE 20,2 0,0 0,0
05:00 18,5 73 1.012 1,2 NNE 20,3 0,0 0,0
04:45 18,6 72 1.012 1,4 NNE 20,4 0,0 0,0
04:30 18,9 71 1.012 1,6 N 20,6 0,0 0,0
04:15 19,1 70 1.012 1,8 NNE 20,7 0,0 0,0
04:00 19,4 71 1.012 2,4 N 21,1 0,0 0,0
03:45 19,4 72 1.012 3,6 NE 21,2 0,0 0,0
03:30 19,4 74 1.012 2,4 ENE 21,3 0,0 0,0
03:15 19,3 77 1.012 3,2 ENE 21,4 0,0 0,0
03:00 19,4 78 1.012 1,4 ENE 21,6 0,0 0,0
02:45 19,4 79 1.012 1,6 NNE 21,7 0,0 0,0
02:30 19,1 79 1.012 1,6 NE 21,4 0,0 0,0
02:15 19,3 80 1.012 2,2 NE 21,6 0,0 0,0
02:00 19,3 81 1.012 2,6 NE 21,7 0,0 0,0
01:45 19,5 81 1.012 2,4 NNE 21,9 0,0 0,0
01:30 19,5 81 1.012 2,6 ENE 21,9 0,0 0,0
01:15 19,4 81 1.012 1,2 N 21,8 0,0 0,0
01:00 19,3 80 1.012 0,0 SE 21,6 0,0 0,0
00:45 19,3 80 1.013 0,0 SE 21,6 0,0 0,0
00:30 19,4 80 1.012 0,0 SE 21,7 0,0 0,0
00:15 19,4 80 1.012 1,4 N 21,7 0,0 0,0
00:00 19,5 80 1.012 0,0 S 21,8 0,0 0,0

 

 

Stampa paginastampa    torna in cima

 2002-2019 osservatoriocalliano.it